Flag Weather past 2 weeks in Bolzano, Italy

Now
57 °F

Passing clouds.


Feels Like: 57 °F
Forecast: 41 / 65 °F
Wind: 5 mph from South

Location: Bolzano

Current Time: Oct 30, 2014 at 1:19:40 PM

Latest Report: Oct 30, 2014 at 12:50 PM


Visibility: N/A

Pressure: 30.24 "Hg

Humidity: 51%

Dew point: 39 °F

Location of BolzanoLocation

Historic Weather in Bolzano — Graph

°F

Bolzano temperature yesterday

Maximum temperature yesterday: 61 °F (at 2:50 PM)
Minimum temperature yesterday: 36 °F (at 6:50 AM)
Average temperature yesterday: 48 °F

Past Weeks' High & Low Weather Summary

 TemperatureHumidityPressure
High75 °F (Oct 17, 3:50 PM)100% (Oct 16, 6:50 AM)30.36 "Hg (Oct 16, 6:50 AM)
Low36 °F (Oct 29, 6:50 AM)20% (Oct 22, 3:50 PM)29.56 "Hg (Oct 21, 10:50 PM)
Average57 °F71%30.08 "Hg
* Reported Oct 15 12:50 PM — Oct 30 11:50 AM, Bolzano, Weather by CustomWeather, © 2014

Note: Actual official high and low records may vary slightly from our data, if they occured in-between our weather recording intervals... More about our weather records

Advertising

Bolzano weather history for previous 24 hours

 ConditionsComfort  
Time TempWeatherWind HumidityBarometerVisibility
11:50 AM
Oct 30
54 °FSunny.1 mph67%30.24 "Hg10 mi
10:50 AM50 °FSunny.1 mph67%30.27 "Hg10 mi
9:50 AM48 °FSunny.1 mph71%30.27 "Hg10 mi
8:50 AM45 °FPassing clouds.No wind87%30.27 "HgN/A
7:50 AM36 °FPassing clouds.No wind100%30.27 "HgN/A
6:50 AM36 °FPassing clouds.No wind100%30.27 "HgN/A
10:50 PM
Oct 29
39 °FClear.No wind93%30.18 "Hg10 mi
9:50 PM39 °FClear.No wind93%30.18 "Hg10 mi
8:50 PM43 °FClear.No wind87%30.15 "Hg10 mi
7:50 PM45 °FClear.1 mph87%30.15 "Hg10 mi
6:50 PM45 °FClear.2 mph87%30.12 "Hg10 mi
5:50 PM50 °FClear.3 mph76%30.09 "Hg10 mi
4:50 PM52 °FSunny.2 mph72%30.07 "Hg10 mi
3:50 PM59 °FSunny.2 mph55%30.04 "Hg10 mi
2:50 PM61 °FSunny.5 mph45%30.04 "Hg10 mi
1:50 PM59 °FPassing clouds.5 mph55%30.07 "HgN/A
Weather by CustomWeather, © 2014

See weather overviewHow to use our weather pages